• In Uzbekistan
  • List of Countries
  • For 7 days
  • Water Temperature
  • Satellite Maps
  • Weather Map
  • Weather Widgets
  • user-avatar
    Login

    Hourly Weather Viroflay

    Today, 20 July, Friday

    Time Temperature Precipitation Wind Pressure Humidity
    00:00 +21°C° 0.3 mm 1 mps 747 mmHg 70%
    01:00 +21°C° 0.7 mm 1 mps 747 mmHg 72%
    02:00 +20°C° 0.7 mm 1 mps 747 mmHg 75%
    03:00 +20°C° 0.7 mm 1 mps 747 mmHg 78%
    04:00 +20°C° 0.4 mm 1 mps 747 mmHg 78%
    05:00 +20°C° 0.4 mm 1 mps 747 mmHg 77%
    06:00 +20°C° 0 mm 1 mps 747 mmHg 80%
    07:00 +21°C° 0.3 mm 1 mps 747 mmHg 77%
    08:00 +22°C° 0.3 mm 1 mps 747 mmHg 73%
    09:00 +24°C° 0.3 mm 1 mps 747 mmHg 69%
    10:00 +24°C° 1 mm 2 mps 747 mmHg 66%
    11:00 +25°C° 1 mm 2 mps 746 mmHg 62%
    12:00 +26°C° 0 mm 2 mps 747 mmHg 60%
    13:00 +25°C° 0.9 mm 3 mps 747 mmHg 61%
    14:00 +25°C° 0.9 mm 3 mps 746 mmHg 62%
    15:00 +25°C° 0.9 mm 3 mps 746 mmHg 63%
    16:00 +25°C° 0.5 mm 3 mps 746 mmHg 66%
    17:00 +24°C° 0.5 mm 3 mps 746 mmHg 69%
    18:00 +22°C° 0.5 mm 3 mps 745 mmHg 73%
    19:00 +21°C° 0 mm 3 mps 745 mmHg 76%
    20:00 +20°C° 0 mm 3 mps 745 mmHg 80%
    21:00 +18°C° 0 mm 3 mps 746 mmHg 83%
    22:00 +18°C° 0 mm 3 mps 745 mmHg 86%
    23:00 +17°C° 0 mm 3 mps 745 mmHg 88%

    Tomorrow, 21 July, Saturday

    Time Temperature Precipitation Wind Pressure Humidity
    00:00 +16°C° 0 mm 2 mps 745 mmHg 90%
    01:00 +16°C° 0 mm 2 mps 745 mmHg 91%
    02:00 +15°C° 0 mm 2 mps 745 mmHg 92%
    03:00 +15°C° 0 mm 2 mps 745 mmHg 93%
    04:00 +14°C° 0 mm 3 mps 745 mmHg 91%
    05:00 +16°C° 0 mm 3 mps 746 mmHg 89%
    06:00 +16°C° 0 mm 3 mps 746 mmHg 87%
    07:00 +18°C° 0 mm 3 mps 746 mmHg 81%
    08:00 +19°C° 0 mm 3 mps 746 mmHg 74%
    09:00 +21°C° 0 mm 2 mps 746 mmHg 68%
    10:00 +21°C° 0.1 mm 2 mps 746 mmHg 66%
    11:00 +23°C° 0.1 mm 2 mps 746 mmHg 64%
    12:00 +24°C° 0.1 mm 2 mps 746 mmHg 61%
    13:00 +24°C° 0.3 mm 2 mps 746 mmHg 60%
    14:00 +25°C° 0.3 mm 2 mps 746 mmHg 59%
    15:00 +25°C° 0.3 mm 2 mps 746 mmHg 59%
    16:00 +25°C° 0.5 mm 2 mps 746 mmHg 62%
    17:00 +24°C° 0.5 mm 2 mps 746 mmHg 65%
    18:00 +24°C° 0.5 mm 2 mps 746 mmHg 68%
    19:00 +23°C° 0.1 mm 2 mps 746 mmHg 72%
    20:00 +20°C° 0.1 mm 2 mps 747 mmHg 75%
    21:00 +19°C° 0.1 mm 2 mps 747 mmHg 79%
    22:00 +18°C° 0 mm 2 mps 747 mmHg 81%
    23:00 +19°C° 0 mm 1 mps 747 mmHg 82%

    Day after tomorrow, 22 July, Sunday

    Time Temperature Precipitation Wind Pressure Humidity
    00:00 +18°C° 0 mm 1 mps 747 mmHg 83%
    01:00 +18°C° 0 mm 1 mps 747 mmHg 83%
    02:00 +16°C° 0 mm 2 mps 747 mmHg 83%
    03:00 +16°C° 0 mm 2 mps 747 mmHg 84%
    04:00 +18°C° 0 mm 1 mps 747 mmHg 81%
    05:00 +18°C° 0 mm 1 mps 747 mmHg 79%
    06:00 +18°C° 0 mm 1 mps 748 mmHg 77%
    07:00 +20°C° 0 mm 1 mps 748 mmHg 70%
    08:00 +22°C° 0 mm 1 mps 748 mmHg 64%
    09:00 +23°C° 0 mm 1 mps 748 mmHg 57%
    10:00 +24°C° 0 mm 2 mps 748 mmHg 54%
    11:00 +25°C° 0 mm 2 mps 748 mmHg 51%
    12:00 +26°C° 0 mm 2 mps 748 mmHg 48%
    13:00 +27°C° 0 mm 2 mps 747 mmHg 48%
    14:00 +27°C° 0 mm 3 mps 747 mmHg 47%
    15:00 +28°C° 0 mm 3 mps 747 mmHg 46%
    16:00 +27°C° 0 mm 3 mps 747 mmHg 50%
    17:00 +26°C° 0 mm 3 mps 747 mmHg 54%
    18:00 +26°C° 0 mm 3 mps 747 mmHg 58%
    19:00 +24°C° 0 mm 3 mps 748 mmHg 64%
    20:00 +21°C° 0 mm 3 mps 748 mmHg 69%
    21:00 +20°C° 0 mm 3 mps 748 mmHg 74%
    22:00 +19°C° 0 mm 2 mps 748 mmHg 76%
    23:00 +19°C° 0 mm 2 mps 749 mmHg 78%

    23 July, Monday

    Time Temperature Precipitation Wind Pressure Humidity
    00:00 +18°C° 0 mm 2 mps 749 mmHg 80%
    01:00 +18°C° 0 mm 2 mps 749 mmHg 81%
    02:00 +17°C° 0 mm 2 mps 749 mmHg 82%
    03:00 +18°C° 0 mm 1 mps 749 mmHg 83%
    04:00 +18°C° 0 mm 1 mps 749 mmHg 82%
    05:00 +19°C° 0 mm 1 mps 749 mmHg 81%
    06:00 +19°C° 0 mm 1 mps 749 mmHg 79%
    07:00 +21°C° 0 mm 1 mps 749 mmHg 73%
    08:00 +23°C° 0 mm 1 mps 749 mmHg 67%
    09:00 +25°C° 0 mm 1 mps 749 mmHg 61%
    10:00 +26°C° 0 mm 1 mps 749 mmHg 57%
    11:00 +27°C° 0 mm 1 mps 749 mmHg 53%
    12:00 +28°C° 0 mm 1 mps 749 mmHg 48%
    13:00 +29°C° 0 mm 1 mps 749 mmHg 48%
    14:00 +29°C° 0 mm 1 mps 748 mmHg 48%
    15:00 +29°C° 0 mm 1 mps 748 mmHg 47%
    16:00 +29°C° 0 mm 1 mps 748 mmHg 51%
    17:00 +28°C° 0 mm 1 mps 748 mmHg 55%
    18:00 +28°C° 0 mm 1 mps 748 mmHg 58%
    19:00 +26°C° 0 mm 1 mps 748 mmHg 63%
    20:00 +25°C° 0 mm 1 mps 748 mmHg 68%
    21:00 +23°C° 0 mm 2 mps 748 mmHg 73%
    22:00 +22°C° 0 mm 1 mps 748 mmHg 76%
    23:00 +22°C° 0 mm 1 mps 748 mmHg 78%

    24 July, Tuesday

    Time Temperature Precipitation Wind Pressure Humidity
    00:00 +21°C° 0 mm 1 mps 747 mmHg 81%
    01:00 +21°C° 0 mm 1 mps 747 mmHg 82%
    02:00 +20°C° 0 mm 1 mps 747 mmHg 84%
    03:00 +20°C° 0 mm 1 mps 747 mmHg 85%
    04:00 +21°C° 0 mm 1 mps 747 mmHg 83%
    05:00 +21°C° 0 mm 1 mps 747 mmHg 81%
    06:00 +22°C° 0 mm 1 mps 747 mmHg 79%
    07:00 +23°C° 0 mm 1 mps 747 mmHg 73%
    08:00 +25°C° 0 mm 1 mps 747 mmHg 67%
    09:00 +27°C° 0 mm 2 mps 747 mmHg 61%
    10:00 +28°C° 0.1 mm 2 mps 746 mmHg 58%
    11:00 +29°C° 0.1 mm 1 mps 746 mmHg 54%
    12:00 +30°C° 0.1 mm 1 mps 746 mmHg 50%
    13:00 +30°C° 0.3 mm 1 mps 746 mmHg 50%
    14:00 +30°C° 0.3 mm 1 mps 746 mmHg 50%
    15:00 +30°C° 0.3 mm 1 mps 745 mmHg 50%
    16:00 +29°C° 0.4 mm 1 mps 745 mmHg 55%
    17:00 +28°C° 0.4 mm 1 mps 745 mmHg 59%
    18:00 +27°C° 0.4 mm 2 mps 745 mmHg 64%
    19:00 +26°C° 0.1 mm 1 mps 745 mmHg 68%
    20:00 +25°C° 0.1 mm 1 mps 746 mmHg 72%
    21:00 +23°C° 0.1 mm 1 mps 746 mmHg 76%
    22:00 +23°C° 0 mm 1 mps 746 mmHg 77%
    23:00 +22°C° 0 mm 1 mps 746 mmHg 79%

    25 July, Wednesday

    Time Temperature Precipitation Wind Pressure Humidity
    00:00 +22°C° 0 mm 1 mps 746 mmHg 80%
    01:00 +22°C° 0.1 mm 1 mps 746 mmHg 82%
    02:00 +21°C° 0.1 mm 1 mps 746 mmHg 84%
    03:00 +21°C° 0.1 mm 1 mps 746 mmHg 86%
    04:00 +21°C° 0 mm 1 mps 746 mmHg 85%
    05:00 +21°C° 0 mm 1 mps 746 mmHg 84%
    06:00 +22°C° 0 mm 1 mps 746 mmHg 82%
    07:00 +24°C° 0 mm 1 mps 746 mmHg 76%
    08:00 +25°C° 0 mm 2 mps 746 mmHg 69%
    09:00 +27°C° 0 mm 2 mps 747 mmHg 63%
    10:00 +28°C° 0.1 mm 2 mps 747 mmHg 59%
    11:00 +29°C° 0.1 mm 3 mps 747 mmHg 55%
    12:00 +30°C° 0.1 mm 3 mps 747 mmHg 50%
    13:00 +30°C° 0.2 mm 3 mps 747 mmHg 51%
    14:00 +30°C° 0.2 mm 3 mps 747 mmHg 51%
    15:00 +30°C° 0.2 mm 3 mps 747 mmHg 52%
    16:00 +29°C° 0.3 mm 3 mps 747 mmHg 57%
    17:00 +28°C° 0.3 mm 4 mps 747 mmHg 62%
    18:00 +27°C° 0.3 mm 4 mps 747 mmHg 67%
    19:00 +25°C° 0 mm 4 mps 747 mmHg 73%
    20:00 +22°C° 0 mm 3 mps 748 mmHg 78%
    21:00 +20°C° 0 mm 3 mps 748 mmHg 83%
    22:00 +19°C° 0 mm 3 mps 748 mmHg 84%
    23:00 +19°C° 0 mm 3 mps 748 mmHg 85%
    Show more